Vorticity
7 8 -1 4 2 0 3 2 3 5 15 11 11 10 9 10 11 9 9 7 6 6 7 8 7 6 5 5 6 7 6 6
3 6 6 1 5 4 1 5 6 2 3 15 10 8 9 9 9 10 9 8 8 8 4 2 2 0 3 4 6 7 8 5
11 17 12 6 4 3 3 2 8 5 5 13 15 12 8 7 5 6 6 3 1 -2 -3 0 3 3 4 9 11 8 9 10
8 12 11 3 -1 6 8 4 8 4 4 10 11 7 6 7 4 3 0 -0 -1 0 3 2 1 3 6 12 14 11 9 11
8 5 4 4 -3 6 7 3 5 7 8 7 11 7 5 4 4 1 -0 1 1 1 0 1 2 6 9 6 10 10 9 6
11 8 3 4 5 6 5 5 6 6 8 9 9 8 5 2 2 2 -0 -1 0 2 1 3 3 6 11 10 12 11 14 16
5 9 9 5 5 6 7 8 5 7 9 7 6 4 2 1 2 2 0 1 -0 -0 4 12 19 15 18 16 17 14 12 16
-2 -0 2 7 8 8 8 7 8 8 9 6 4 3 2 2 2 -0 1 3 5 8 12 14 13 11 12 13 12 10 8 6
16 18 16 13 9 7 9 10 9 7 5 6 5 4 4 5 -0 0 1 5 7 11 14 12 12 12 12 12 12 15 17 17
2 6 8 14 11 10 8 8 5 6 6 6 5 5 2 0 2 4 5 4 11 12 11 13 15 16 17 15 11 9 6 6
8 12 8 14 9 6 5 4 3 8 6 6 5 4 0 1 2 4 5 11 11 10 12 14 17 14 9 8 8 7 7 8
20 18 10 13 9 7 3 3 6 3 6 6 4 0 1 1 4 6 9 9 10 12 16 17 12 6 6 8 9 12 12 11
20 16 10 10 8 5 4 4 5 4 5 3 1 0 1 5 5 11 10 10 13 17 17 13 7 9 11 12 12 15 15 15
16 14 11 10 6 4 4 6 6 6 7 1 1 2 3 3 10 9 13 14 17 16 12 10 13 11 11 16 17 17 15 16
15 11 12 8 5 5 5 8 7 4 1 1 3 2 7 12 10 12 12 16 17 14 14 13 11 17 17 12 13 15 16 18
10 10 7 8 5 7 10 7 3 1 -2 9 3 4 9 10 12 11 14 16 14 15 10 12 15 12 11 12 12 13 13 11
14 13 7 6 7 10 7 5 2 5 9 0 1 12 9 9 12 13 15 15 15 9 10 9 6 6 4 7 9 8 8 4
12 14 17 9 8 7 5 2 4 4 0 1 6 11 9 13 15 12 14 14 10 8 9 11 11 10 4 10 8 8 6 5
18 16 13 6 7 6 8 2 2 5 3 13 12 8 11 14 13 12 10 12 7 7 8 9 7 8 10 11 9 5 5 5
Height
3139 3143 3146 3148 3149 3149 3149 3149 3149 3149 3149 3148 3149 3148 3149 3149 3149 3149 3149 3148 3148 3148 3147 3146 3144 3143 3141 3139 3136 3134 3131 3129
3133 3138 3141 3144 3145 3146 3145 3145 3145 3145 3145 3144 3143 3144 3145 3146 3146 3146 3146 3145 3145 3144 3143 3141 3139 3137 3135 3132 3130 3128 3125 3120
3126 3130 3134 3137 3140 3141 3141 3141 3141 3140 3139 3139 3140 3141 3142 3142 3142 3142 3142 3141 3140 3139 3139 3136 3133 3131 3127 3123 3119 3115 3112 3110
3120 3125 3128 3131 3134 3135 3137 3137 3137 3137 3136 3135 3135 3136 3137 3138 3137 3137 3136 3135 3134 3133 3131 3128 3124 3120 3116 3112 3108 3104 3099 3098
3115 3119 3124 3126 3127 3128 3130 3131 3131 3131 3132 3132 3132 3133 3133 3133 3132 3132 3131 3129 3126 3124 3121 3118 3114 3109 3104 3100 3096 3092 3088 3085
3110 3113 3117 3119 3121 3121 3121 3122 3123 3125 3126 3127 3128 3128 3128 3128 3128 3126 3124 3121 3119 3115 3112 3108 3103 3098 3094 3090 3085 3081 3078 3074
3105 3107 3109 3111 3113 3114 3115 3116 3117 3118 3120 3120 3121 3122 3122 3121 3120 3118 3116 3115 3112 3108 3103 3098 3093 3088 3083 3079 3073 3069 3066 3062
3098 3099 3102 3103 3105 3106 3108 3109 3111 3112 3113 3114 3115 3115 3115 3114 3112 3109 3108 3105 3099 3095 3091 3087 3083 3078 3073 3069 3064 3060 3056 3052
3089 3092 3095 3096 3098 3100 3102 3103 3105 3107 3108 3108 3108 3108 3107 3106 3104 3101 3096 3092 3089 3085 3080 3075 3071 3067 3062 3058 3054 3051 3048 3044
3080 3084 3087 3089 3092 3095 3098 3099 3100 3101 3101 3101 3101 3101 3100 3098 3095 3091 3088 3084 3079 3074 3070 3065 3060 3056 3053 3048 3045 3041 3037 3034
3071 3074 3078 3082 3085 3088 3092 3093 3094 3094 3095 3096 3095 3094 3093 3089 3086 3084 3080 3075 3070 3065 3060 3055 3051 3047 3043 3039 3036 3033 3028 3025
3063 3067 3071 3075 3078 3081 3083 3085 3088 3090 3091 3090 3088 3086 3083 3081 3079 3075 3071 3065 3060 3054 3049 3044 3040 3037 3034 3030 3027 3023 3018 3014
3057 3060 3064 3067 3071 3074 3076 3079 3082 3084 3083 3081 3080 3079 3077 3074 3070 3066 3061 3055 3049 3043 3038 3035 3033 3029 3025 3020 3016 3010 3006 3003
3050 3054 3058 3061 3065 3068 3070 3073 3075 3075 3075 3075 3074 3072 3068 3065 3061 3057 3051 3044 3039 3034 3031 3028 3025 3021 3016 3011 3005 3001 2997 2992
3045 3048 3051 3055 3058 3061 3065 3066 3067 3068 3067 3067 3065 3062 3060 3055 3050 3044 3040 3035 3031 3028 3024 3020 3017 3012 3006 3002 2998 2993 2987 2983
3038 3041 3044 3047 3050 3054 3055 3057 3058 3058 3058 3056 3054 3052 3050 3045 3040 3036 3031 3027 3023 3019 3015 3011 3007 3003 2999 2995 2989 2985 2981 2977
3031 3034 3037 3040 3043 3045 3047 3049 3049 3049 3048 3046 3045 3044 3041 3037 3033 3029 3024 3020 3016 3012 3008 3004 3001 2997 2993 2988 2984 2980 2975 2970
3023 3026 3029 3032 3034 3037 3039 3039 3039 3039 3038 3037 3036 3036 3032 3029 3025 3020 3016 3012 3009 3005 3001 2998 2995 2991 2986 2983 2978 2974 2968 2963
3015 3017 3021 3023 3026 3028 3030 3029 3029 3030 3028 3029 3029 3027 3024 3021 3017 3012 3009 3006 3003 3001 2997 2993 2989 2985 2981 2975 2970 2965 2960 2955